Other Public Products
Issued by NWS Grand Forks, ND

Home | Current Version | Previous Version | Text Only | Print | Product List | Glossary Off
Versions: 1 2 3 4 5 6 7 8 9 10 11 12 13 14 15 16 17 18 19 20 21 22 23 24 25 26 27 28 29 30 31 32 33 34 35 36 37 38 39 40 41 42 43 44 45 46 47 48 49 50

000
FPUS83 KFGF 290631
OPUFGF
PRAIRIE TO PINES WEATHER ROUNDUP
NATIONAL WEATHER SERVICE EASTERN NORTH DAKOTA/GRAND FORKS ND
100 AM CDT TUE JUL 29 2014

 **SATELLITE DATA USED TO AUGMENT SKY COVER AT AUTOMATED STATIONS**
 *****  WEATHER ACROSS EASTERN NORTH DAKOTA  *****

CITY           SKY/WX    TMP DP  RH WIND       PRES   REMARKS
GRAND FORKS    CLEAR     55  53  93 W7        30.18S
6HR MIN TEMP:  55; 6HR MAX TEMP:  73;

GRAND FORKS AF CLEAR     56  55  99 W1        30.19S
GRAND CITY NWS   N/A     55 N/A N/A MISG        N/A
BUXTON           N/A     58  57  96 W2          N/A
DEVILS LAKE    CLEAR     57  52  82 CALM      30.20S
6HR MIN TEMP:  57; 6HR MAX TEMP:  72;

FARGO          CLEAR     57  53  86 CALM      30.18F
6HR MIN TEMP:  57; 6HR MAX TEMP:  74;

WAHPETON ARPT  CLEAR     52  48  87 W5        30.20S
$$

 *****  WEATHER ACROSS CENTRAL AND WESTERN NORTH DAKOTA  *****

CITY           SKY/WX    TMP DP  RH WIND       PRES   REMARKS
JAMESTOWN      CLEAR     57  52  83 W3        30.22S
6HR MIN TEMP:  54; 6HR MAX TEMP:  72;

BISMARCK       CLEAR     58  53  84 CALM      30.24S
6HR MIN TEMP:  55; 6HR MAX TEMP:  75;

MINOT          CLEAR     57  54  89 CALM      30.22S
6HR MIN TEMP:  57; 6HR MAX TEMP:  74;

MINOT AFB      CLEAR     56  56  99 SW3       30.22R
6HR MIN TEMP:  56; 6HR MAX TEMP:  74;

GARRISON         N/A     56  53  90 CALM      30.23S
6HR MIN TEMP:  56; 6HR MAX TEMP:  74;

WILLISTON      CLEAR     67  55  65 CALM      30.22S
6HR MIN TEMP:  66; 6HR MAX TEMP:  81;

DICKINSON      PTCLDY    57  52  83 S10       30.24S
6HR MIN TEMP:  56; 6HR MAX TEMP:  77;

HETTINGER      CLEAR     58  50  75 SE3       30.27S
6HR MIN TEMP:  57; 6HR MAX TEMP:  76;

$$

 *****  OTHER OBSERVATIONS NORTHEAST NORTH DAKOTA  *****

CITY           SKY/WX    TMP DP  RH WIND       PRES   REMARKS
WALHALLA         N/A     52  52 100 SW3         N/A
LANGDON        FAIR      50  48  93 SW3       30.21S
CAVALIER       FAIR      55  54  94 W5        30.19R
GRAFTON        FAIR      57  55  94 W5        30.18S
CANDO          FAIR      54  52  94 W3        30.23S
FORT TOTTEN      N/A     56  53  90 CALM      29.95S
ROLLA          FAIR      50  50 100 CALM      30.24S
RUGBY          FAIR      55  55 100 CALM      30.22S
 ***** THE ABOVE OBSERVATIONS ARE NON NWS ARE NOT QUALITY
        CONTROLLED AND MAY MIS-REPORT RAIN FOR SNOW...
$$

 *****  OTHER OBSERVATIONS SOUTHEAST NORTH DAKOTA *****

CITY           SKY/WX    TMP DP  RH WIND       PRES   REMARKS
COOPERSTOWN    NOT AVBL
VALLEY CITY    FAIR      55  55 100 CALM      30.22S
OAKES          NOT AVBL
GWINNER        CLEAR     55  54  94 W7        30.23S
BUFFALO        NOT AVBL
WYNDMERE       NOT AVBL
 ***** THE ABOVE OBSERVATIONS ARE NON NWS ARE NOT QUALITY
       CONTROLLED AND MAY MIS-REPORT RAIN FOR SNOW...
$$

  *****  WEATHER ACROSS NORTHERN MINNESOTA  *****

CITY           SKY/WX    TMP DP  RH WIND       PRES   REMARKS
FLAG ISLAND    CLEAR     64  57  77 NW14      30.12S
WARROAD        CLEAR     59  55  88 W7        30.16R
ROSEAU         CLEAR     61  54  77 W3        30.16S
HALLOCK        CLEAR     57  55  94 CALM      30.18S
THF RVR FALLS  CLEAR     59  55  88 CALM      30.18S
6HR MIN TEMP:  57; 6HR MAX TEMP:  72;

HALSTAD          N/A     55  52  90 NW3         N/A
FOSSTON        CLEAR     52  48  87 CALM      30.19S
BAUDETTE       CLEAR     61  56  83 W3        30.14F
6HR MIN TEMP:  61; 6HR MAX TEMP:  73;

WASKISH        CLEAR     64  57  77 NW8       30.14S
CROOKSTON      CLEAR     57  55  94 CALM      30.19S
$$
  *****  WEATHER ACROSS CENTRAL AND WEST MINNESOTA  *****

CITY           SKY/WX    TMP DP  RH WIND       PRES   REMARKS
BEMIDJI        CLEAR     55  52  90 NW6       30.16F
PARK RAPIDS    CLEAR     53  51  93 NW5       30.18S
6HR MIN TEMP:  53; 6HR MAX TEMP:  71;

WADENA         CLEAR     55  54  94 CALM      30.18S
DETROIT LAKES  CLEAR     59  54  82 CALM      30.20S
MOORHEAD       CLEAR     59  57  94 CALM      30.20S
FERGUS FALLS   CLEAR     57  52  82 CALM      30.20S
ELBOW LAKE     FAIR      56  53  91 NW3       30.19S
MORRIS MN      CLEAR     54  52  94 NW5       30.19S
STAPLES        CLEAR     54  52  94 W3        30.18S
WHEATON        CLEAR     55  52  88 SW3       30.22S
$$
  *****  WEATHER ELSEWHERE ACROSS MINNESOTA  *****

CITY           SKY/WX    TMP DP  RH WIND       PRES   REMARKS
DULUTH         PTCLDY    61  54  77 NW7       30.10S
6HR MIN TEMP:  61; 6HR MAX TEMP:  72;

INTRNTL FALLS  PTCLDY    55  53  93 CALM      30.11S
6HR MIN TEMP:  54; 6HR MAX TEMP:  72;

ELY            LGT RAIN  55  54  94 CALM      30.11S
CLOQUET        CLEAR     57  52  82 W5        30.11S
BRAINERD       CLEAR     61  54  77 NW3       30.17S
6HR MIN TEMP:  60; 6HR MAX TEMP:  72;

HIBBING        PTCLDY    55  52  89 NW3       30.13S
6HR MIN TEMP:  55; 6HR MAX TEMP:  73;

ALEXANDRIA     CLEAR     59  55  87 NW3       30.20F
6HR MIN TEMP:  59; 6HR MAX TEMP:  72;

SAINT CLOUD    CLEAR     61  54  77 NW3       30.16R
6HR MIN TEMP:  61; 6HR MAX TEMP:  75;

MINNEAPOLIS    CLEAR     64  56  75 NW8       30.14R
6HR MIN TEMP:  64; 6HR MAX TEMP:  75;

$$

  *****  WEATHER ACROSS SOUTH DAKOTA  *****

CITY           SKY/WX    TMP DP  RH WIND       PRES   REMARKS
SIOUX FALLS    CLEAR     56  54  93 CALM      30.22S
6HR MIN TEMP:  55; 6HR MAX TEMP:  72;

BROOKINGS      NOT AVBL
WATERTOWN      CLEAR     55  51  86 CALM      30.23S
6HR MIN TEMP:  54; 6HR MAX TEMP:  69;

HURON          CLEAR     53  50  89 CALM      30.22S
6HR MIN TEMP:  53; 6HR MAX TEMP:  74;

SISSETON         N/A     54  52  93 NW3       30.20S
ABERDEEN       CLEAR     50  49  96 CALM      30.23S
6HR MIN TEMP:  50; 6HR MAX TEMP:  72;

MITCHELL       CLEAR     60  54  80 CALM      30.23S
PIERRE         CLEAR     58  52  80 CALM      30.22S
6HR MIN TEMP:  57; 6HR MAX TEMP:  79;

MOBRIDGE       CLEAR     59  50  72 E8        30.22R
RAPID CITY     CLEAR     59  51  75 E6        30.28S
6HR MIN TEMP:  58; 6HR MAX TEMP:  79;

$$

  *****  SOME WEATHER IN NEARBY STATES *****

CITY           SKY/WX    TMP DP  RH WIND       PRES   REMARKS
GLASGOW MT     CLEAR     68  48  48 E13       30.19F
6HR MIN TEMP:  67; 6HR MAX TEMP:  90;

GREAT FALLS MT MOCLDY    73  46  38 E10       30.16R
6HR MIN TEMP:  71; 6HR MAX TEMP:  91; 6HR PCP: TRACE;

CHEYENNE WY    PTCLDY    62  54  74 SW5       30.35S
6HR MIN TEMP:  61; 6HR MAX TEMP:  79; 6HR PCP: TRACE;

SCOTTSBLUFF NE CLEAR     68  61  78 E6        30.22S
6HR MIN TEMP:  67; 6HR MAX TEMP:  88;

OMAHA NE       CLEAR     63  57  81 N7        30.20R
6HR MIN TEMP:  63; 6HR MAX TEMP:  78;

DES MOINES IA  CLEAR     63  59  87 NW3       30.16S
6HR MIN TEMP:  63; 6HR MAX TEMP:  74; 6HR PCP: TRACE;

DAVENPORT IA   CLEAR     52  50  93 W7        30.12S
6HR MIN TEMP:  51; 6HR MAX TEMP:  70;

CHICAGO IL     MOCLDY    63  51  65 NW3       30.05S
6HR MIN TEMP:  60; 6HR MAX TEMP:  69;

EAU CLAIRE WI  PTCLDY    60  54  80 W5        30.09S
6HR MIN TEMP:  59; 6HR MAX TEMP:  73;

LA CROSSE WI   CLEAR     60  56  86 S3        30.10S
6HR MIN TEMP:  58; 6HR MAX TEMP:  74;

$$

  *****  SOME NATIONAL WEATHER *****

CITY           SKY/WX    TMP DP  RH WIND       PRES   REMARKS
LA GUARDIA NY  PTCLDY    68  57  68 NW21G31   29.72R
6HR MIN TEMP:  68; 6HR MAX TEMP:  76;



USA.gov is the U.S. government's official web portal to all federal, state and local government web resources and services.